FW5198 Weather Reports


Display with metric or nautical units.
time (UTC)temp
F
wind
direction
speed
MPH
gust
MPH
rain 1hr
in
rain 24hr
in
rain mn
in
humidity
%
barometer
mb
20210415144651 51 26 7.0 14.0 0.00 0.00 0.00 55 1006.0
20210415143654 50 32 5.0 14.0 0.00 0.00 0.00 56 1006.0
20210415143448 50 96 7.0 14.0 0.00 0.00 0.00 56 1006.0
20210415143036 50 62 8.0 13.0 0.00 0.00 0.00 55 1006.1
20210415142637 50 69 7.0 14.0 0.00 0.00 0.00 55 1006.1
20210415141537 50 66 9.0 15.0 0.00 0.00 0.00 57 1006.0
20210415141054 49 78 9.0 17.0 0.00 0.00 0.00 58 1006.0
20210415140542 49 67 7.0 17.0 0.00 0.00 0.00 59 1006.2
20210415140130 49 56 8.0 16.0 0.00 0.00 0.00 58 1006.0
20210415135913 49 51 8.0 15.0 0.00 0.00 0.00 61 1006.0
20210415134643 48 52 9.0 15.0 0.00 0.00 0.00 61 1006.0
20210415134059 48 61 8.0 15.0 0.00 0.00 0.00 60 1006.0
20210415133534 48 39 8.0 14.0 0.00 0.00 0.00 62 1006.1
20210415133153 48 32 10.0 17.0 0.00 0.00 0.00 64 1005.9
20210415132229 48 49 7.0 13.0 0.00 0.00 0.00 65 1006.0
20210415131054 48 45 7.0 12.0 0.00 0.00 0.00 65 1006.0
20210415130557 47 55 6.0 17.0 0.00 0.00 0.00 67 1006.0
20210415130112 47 49 8.0 17.0 0.00 0.00 0.00 66 1006.1
20210415125937 47 46 8.0 13.0 0.00 0.00 0.00 67 1005.9
20210415124651 47 36 8.0 13.0 0.00 0.00 0.00 68 1006.0
20210415124055 47 42 5.0 14.0 0.00 0.00 0.00 68 1005.9
20210415123628 47 37 8.0 17.0 0.00 0.00 0.00 68 1006.0
20210415121644 47 43 6.0 11.0 0.00 0.00 0.00 67 1005.8
20210415121102 47 54 5.0 9.0 0.00 0.00 0.00 67 1005.8
20210415120521 47 53 4.0 13.0 0.00 0.00 0.00 67 1005.9
20210415115849 47 26 3.0 10.0 0.00 0.00 0.00 68 1005.7
20210415114549 47 47 3.0 10.0 0.00 0.00 0.00 68 1005.6
20210415114032 47 59 3.0 9.0 0.00 0.00 0.00 69 1005.6
20210415113435 48 36 4.0 8.0 0.00 0.00 0.00 69 1005.7
20210415113027 48 50 4.0 11.0 0.00 0.00 0.00 69 1005.6
20210415111549 48 17 5.0 11.0 0.00 0.00 0.00 69 1005.5
20210415111057 48 37 3.0 7.0 0.00 0.00 0.00 70 1005.5
20210415110521 48 85 4.0 6.0 0.00 0.00 0.00 69 1005.6
20210415105845 49 67 4.0 16.0 0.00 0.00 0.00 68 1005.2
20210415104556 49 56 4.0 16.0 0.00 0.00 0.00 68 1005.2
20210415104040 49 19 9.0 17.0 0.00 0.00 0.00 68 1005.1
20210415103447 49 78 7.0 11.0 0.00 0.00 0.00 72 1005.2
20210415102035 50 78 6.0 11.0 0.00 0.00 0.00 73 1005.0
20210415101532 50 21 6.0 12.0 0.00 0.00 0.00 73 1005.0
20210415101025 50 58 8.0 14.0 0.00 0.00 0.00 73 1005.0
20210415100523 50 34 9.0 14.0 0.00 0.00 0.00 73 1005.0
20210415095936 51 15 9.0 13.0 0.00 0.00 0.00 73 1004.6
20210415094604 51 24 9.0 13.0 0.00 0.00 0.00 73 1004.6
20210415094035 51 5 7.0 12.0 0.00 0.00 0.00 74 1004.5
20210415093629 51 352 4.0 8.0 0.00 0.00 0.00 76 1004.5
20210415093240 51 20 3.0 8.0 0.00 0.00 0.00 77 1004.3
20210415093026 51 360 4.0 8.0 0.00 0.00 0.00 78 1004.5
20210415091712 51 345 4.0 7.0 0.00 0.00 0.00 78 1004.5
20210415091117 51 7 2.0 4.0 0.00 0.00 0.00 79 1004.5
20210415090610 51 12 1.0 4.0 0.00 0.00 0.00 79 1004.3
20210415090101 51 3 2.0 5.0 0.00 0.00 0.00 80 1004.3
20210415085847 51 5 0.0 5.0 0.00 0.00 0.00 80 1004.2
20210415084948 51 353 1.0 5.0 0.00 0.00 0.00 80 1004.4
20210415084054 50 3 3.0 6.0 0.00 0.00 0.00 80 1004.3
20210415083705 50 4 3.0 7.0 0.00 0.00 0.00 81 1004.4
20210415083437 50 26 3.0 7.0 0.00 0.00 0.00 81 1004.4
20210415083106 50 3 1.0 3.0 0.00 0.00 0.00 82 1004.3
20210415082826 49 347 0.0 1.0 0.00 0.00 0.00 82 1004.4
20210415081058 49 348 0.0 3.0 0.00 0.00 0.00 83 1004.2
20210415080647 49 348 0.0 3.0 0.00 0.00 0.00 83 1004.2
20210415080054 49 298 0.0 1.0 0.00 0.00 0.00 86 1004.3
20210415074634 49 298 0.0 2.0 0.00 0.00 0.00 87 1004.4
20210415074055 49 263 0.0 2.0 0.00 0.00 0.00 88 1004.3
20210415073551 49 240 0.0 2.0 0.00 0.00 0.00 88 1004.2
20210415073137 49 231 0.0 2.0 0.00 0.00 0.00 88 1004.1
20210415072913 49 4 0.0 1.0 0.00 0.00 0.00 90 1004.0
20210415071345 49 4 0.0 1.0 0.00 0.00 0.00 90 1004.3
20210415070834 49 4 0.0 1.0 0.00 0.00 0.00 91 1004.3
20210415070248 49 4 0.0 0.0 0.00 0.00 0.00 92 1004.4
20210415065910 48 4 0.0 0.0 0.00 0.00 0.00 92 1004.5
20210415065446 48 4 0.0 0.0 0.00 0.00 0.00 92 1004.4
20210415064551 48 4 0.0 0.0 0.00 0.00 0.00 92 1004.3
20210415064037 48 4 0.0 0.0 0.00 0.00 0.00 91 1004.3
20210415063555 48 4 0.0 0.0 0.00 0.00 0.00 91 1004.4
20210415063155 48 4 0.0 0.0 0.00 0.00 0.00 91 1004.4
20210415063022 48 4 0.0 0.0 0.00 0.00 0.00 91 1004.4
20210415062540 48 4 0.0 0.0 0.00 0.00 0.00 91 1004.4
20210415061040 48 4 0.0 0.0 0.00 0.00 0.00 91 1004.6
20210415060542 48 4 0.0 0.0 0.00 0.00 0.00 92 1004.6
20210415060121 48 4 0.0 0.0 0.00 0.00 0.00 92 1004.7
20210415055832 47 4 0.0 0.0 0.00 0.00 0.00 91 1004.7
20210415055236 47 4 0.0 0.0 0.00 0.00 0.00 92 1004.7
20210415054534 47 4 0.0 0.0 0.00 0.00 0.00 92 1004.7
20210415054033 47 4 0.0 0.0 0.00 0.00 0.00 92 1004.8
20210415053531 47 4 0.0 0.0 0.00 0.00 0.00 92 1004.9
20210415053221 47 4 0.0 1.0 0.00 0.00 0.00 93 1005.0
20210415052845 47 4 0.0 1.0 0.00 0.00 0.00 93 1004.8
20210415052449 46 4 0.0 0.0 0.00 0.00 0.00 92 1004.9
20210415051028 46 4 0.0 0.0 0.00 0.00 0.00 92 1004.8
20210415050536 46 4 0.0 0.0 0.00 0.00 0.00 92 1004.6
20210415050057 47 4 0.0 0.0 0.00 0.00 0.00 91 1004.5
20210415045830 47 4 0.0 0.0 0.00 0.00 0.00 91 1004.6
20210415045321 47 4 0.0 0.0 0.00 0.00 0.00 91 1004.6
20210415044628 47 4 0.0 0.0 0.00 0.00 0.00 91 1004.4
20210415044031 47 4 0.0 0.0 0.00 0.00 0.00 91 1004.5
20210415043524 47 4 0.0 0.0 0.00 0.00 0.00 91 1004.5
20210415043057 47 4 0.0 0.0 0.00 0.00 0.00 91 1004.4
20210415042942 47 4 0.0 0.0 0.00 0.00 0.00 90 1004.5
20210415042631 47 4 0.0 0.0 0.00 0.00 0.00 90 1004.5
20210415041054 47 4 0.0 0.0 0.00 0.00 0.00 90 1004.4
20210415040535 47 4 0.0 0.0 0.00 0.00 0.00 89 1004.4
20210415040106 47 4 0.0 0.0 0.00 0.00 0.00 89 1004.5
20210415035859 47 4 0.0 0.0 0.00 0.00 0.00 89 1004.5
20210415035424 47 4 0.0 0.0 0.00 0.00 0.00 89 1004.7
20210415034548 48 4 0.0 0.0 0.00 0.00 0.00 89 1004.7
20210415034043 48 4 0.0 0.0 0.00 0.00 0.00 89 1004.8
20210415033532 48 4 0.0 0.0 0.00 0.00 0.00 88 1004.9
20210415033057 48 4 0.0 0.0 0.00 0.00 0.00 88 1005.0
20210415032759 48 4 0.0 0.0 0.00 0.00 0.00 87 1005.0
20210415032343 48 4 0.0 0.0 0.00 0.00 0.00 87 1005.1
20210415031034 48 4 0.0 0.0 0.00 0.00 0.00 86 1005.2
20210415030546 49 4 0.0 0.0 0.00 0.00 0.00 85 1005.2
20210415030111 49 4 0.0 0.0 0.00 0.00 0.00 85 1005.2
20210415025641 50 4 0.0 0.0 0.00 0.00 0.00 83 1005.4
20210415024620 50 4 0.0 0.0 0.00 0.00 0.00 83 1005.4
20210415024056 50 4 0.0 0.0 0.00 0.00 0.00 83 1005.4
20210415023546 51 4 0.0 0.0 0.00 0.00 0.00 82 1005.4
20210415023104 51 4 0.0 0.0 0.00 0.00 0.00 81 1005.4
20210415022736 51 4 0.0 1.0 0.00 0.00 0.00 80 1005.3
20210415022305 52 4 0.0 1.0 0.00 0.00 0.00 78 1005.4
20210415021025 53 4 0.0 1.0 0.00 0.00 0.00 77 1005.4
20210415020527 53 4 0.0 0.0 0.00 0.00 0.00 76 1005.2
20210415020359 53 4 0.0 0.0 0.00 0.00 0.00 74 1005.1
20210415020201 54 4 0.0 0.0 0.00 0.00 0.00 74 1005.2
20210415015854 54 4 0.0 1.0 0.00 0.00 0.00 72 1005.2
20210415014540 54 4 0.0 1.0 0.00 0.00 0.00 73 1005.2
20210415014042 54 5 0.0 1.0 0.00 0.00 0.00 71 1005.3
20210415013527 55 5 0.0 2.0 0.00 0.00 0.00 71 1005.2
20210415013317 55 4 0.0 2.0 0.00 0.00 0.00 70 1005.2
20210415013059 55 4 1.0 3.0 0.00 0.00 0.00 69 1005.2
20210415011040 55 5 2.0 3.0 0.00 0.00 0.00 69 1005.3
20210415010627 56 27 0.0 1.0 0.00 0.00 0.00 69 1005.2
20210415010107 56 27 0.0 1.0 0.00 0.00 0.00 69 1005.4
20210415005642 56 28 1.0 2.0 0.00 0.00 0.00 68 1005.5
20210415004541 56 10 1.0 3.0 0.00 0.00 0.00 68 1005.4
20210415004036 56 10 2.0 3.0 0.00 0.00 0.00 66 1005.5
20210415003520 56 17 1.0 2.0 0.00 0.00 0.00 67 1005.4
20210415003036 56 16 2.0 6.0 0.00 0.00 0.00 67 1005.4
20210415001203 56 348 2.0 6.0 0.00 0.00 0.00 67 1005.4
20210415000922 56 6 1.0 4.0 0.00 0.00 0.00 66 1005.4
20210415000557 56 350 2.0 4.0 0.00 0.00 0.00 66 1005.5
20210415000100 57 357 2.0 4.0 0.00 0.00 0.00 66 1005.5
20210414235654 57 340 2.0 6.0 0.00 0.00 0.00 65 1005.4
20210414234525 57 46 4.0 6.0 0.00 0.00 0.00 64 1005.4
20210414234118 57 15 2.0 4.0 0.00 0.00 0.00 64 1005.4
20210414233525 57 21 1.0 6.0 0.00 0.00 0.00 64 1005.3
20210414233136 57 23 3.0 6.0 0.00 0.00 0.00 63 1005.3
20210414232833 57 12 3.0 7.0 0.00 0.00 0.00 62 1005.3
20210414232212 57 12 3.0 7.0 0.00 0.00 0.00 62 1005.2
20210414231026 57 57 4.0 7.0 0.00 0.00 0.00 62 1005.6
20210414230519 57 23 3.0 6.0 0.00 0.00 0.00 62 1005.5
20210414230106 57 9 4.0 6.0 0.00 0.00 0.00 62 1005.5
20210414225900 57 67 3.0 5.0 0.00 0.00 0.00 63 1005.4
20210414225314 58 34 3.0 7.0 0.00 0.00 0.00 63 1005.5
20210414224518 58 61 2.0 8.0 0.00 0.00 0.00 63 1005.6
20210414224020 58 29 5.0 8.0 0.00 0.00 0.00 61 1005.5
20210414223510 58 354 4.0 9.0 0.00 0.00 0.00 63 1005.6
20210414223012 58 19 6.0 9.0 0.00 0.00 0.00 65 1005.6
20210414222833 58 42 5.0 9.0 0.00 0.00 0.00 64 1005.6
20210414222427 58 352 4.0 8.0 0.00 0.00 0.00 62 1005.5
20210414221026 58 5 5.0 11.0 0.00 0.00 0.00 65 1005.3
20210414220523 58 24 6.0 11.0 0.00 0.00 0.00 65 1005.3
20210414215810 58 62 5.0 10.0 0.00 0.00 0.00 64 1005.2
20210414215051 58 55 6.0 10.0 0.00 0.00 0.00 65 1005.2
20210414214800 58 55 5.0 10.0 0.00 0.00 0.00 65 1005.3
20210414214512 58 36 6.0 10.0 0.00 0.00 0.00 65 1005.3
20210414214115 58 8 7.0 10.0 0.00 0.00 0.00 65 1005.2
20210414213625 58 74 3.0 7.0 0.00 0.00 0.00 66 1005.3
20210414213229 58 77 3.0 10.0 0.00 0.00 0.00 65 1005.4
20210414212956 58 52 4.0 10.0 0.00 0.00 0.00 66 1005.5
20210414212828 58 38 3.0 7.0 0.00 0.00 0.00 66 1005.4
20210414211035 57 17 4.0 7.0 0.00 0.00 0.00 67 1005.5
20210414210512 57 32 3.0 8.0 0.00 0.00 0.00 67 1005.6
20210414210024 57 45 5.0 8.0 0.00 0.00 0.00 67 1005.6
20210414205748 57 38 4.0 8.0 0.00 0.00 0.00 68 1005.7
20210414205139 57 39 3.0 7.0 0.00 0.00 0.00 68 1005.7
20210414204511 57 341 5.0 7.0 0.00 0.00 0.00 67 1005.7
20210414204012 57 21 5.0 7.0 0.00 0.00 0.00 68 1005.8
20210414203513 57 57 3.0 6.0 0.00 0.00 0.00 69 1005.9
20210414203053 57 32 3.0 6.0 0.00 0.00 0.00 67 1005.9
20210414202930 57 9 2.0 5.0 0.00 0.00 0.00 68 1006.1
20210414201115 57 1 3.0 5.0 0.00 0.00 0.00 67 1006.2
20210414200614 57 55 2.0 5.0 0.00 0.00 0.00 68 1006.2
20210414200153 57 59 2.0 5.0 0.00 0.00 0.00 67 1006.3
20210414195856 57 70 2.0 7.0 0.00 0.00 0.00 67 1006.5
20210414195428 57 359 4.0 9.0 0.00 0.00 0.00 67 1006.4
20210414194729 57 348 5.0 8.0 0.00 0.00 0.00 67 1006.5
20210414194059 57 56 5.0 10.0 0.00 0.00 0.00 65 1006.5
20210414193600 58 58 6.0 12.0 0.00 0.00 0.00 65 1006.5
20210414193226 58 31 6.0 12.0 0.00 0.00 0.00 67 1006.6
20210414192911 58 55 5.0 12.0 0.00 0.00 0.00 67 1006.7
20210414192256 58 18 6.0 12.0 0.00 0.00 0.00 66 1006.6
20210414191057 58 13 5.0 8.0 0.00 0.00 0.00 65 1006.2
20210414190554 58 79 2.0 8.0 0.00 0.00 0.00 65 1006.1
20210414190230 58 34 4.0 10.0 0.00 0.00 0.00 67 1006.2
20210414185924 58 60 5.0 11.0 0.00 0.00 0.00 65 1006.4
20210414185537 58 20 6.0 12.0 0.00 0.00 0.00 66 1006.3
20210414184141 58 74 4.0 10.0 0.00 0.00 0.00 65 1006.4
20210414183618 58 88 5.0 12.0 0.00 0.00 0.00 65 1006.5
20210414183228 58 18 5.0 12.0 0.00 0.00 0.00 64 1006.5
20210414182954 58 57 6.0 12.0 0.00 0.00 0.00 66 1006.5
20210414181057 58 64 6.0 11.0 0.00 0.00 0.00 67 1006.4
20210414180655 57 15 3.0 9.0 0.00 0.00 0.00 65 1006.4
20210414180310 57 45 4.0 9.0 0.00 0.00 0.00 66 1006.5
20210414175928 57 58 5.0 10.0 0.00 0.00 0.00 67 1006.5
20210414175646 56 49 6.0 12.0 0.00 0.00 0.00 67 1006.7
20210414174640 56 358 9.0 12.0 0.00 0.00 0.00 68 1006.9
20210414174105 0 0.0 0.0 0.00 0.00 0.00 1007.1
20210414173558 0 0.0 0.0 0.00 0.00 0.00 1007.0
20210414173141 0 0.0 0.0 0.00 0.00 0.00 1007.0
20210414172849 57 12 5.0 11.0 0.00 0.00 0.00 66 1007.2
20210414172453 57 12 5.0 11.0 0.00 0.00 0.00 66 1007.1
20210414171053 57 81 3.0 8.0 0.00 0.00 0.00 66 1006.5
20210414170713 57 52 4.0 10.0 0.00 0.00 0.00 66 1006.4
20210414170429 57 73 5.0 10.0 0.00 0.00 0.00 66 1006.5
20210414170046 57 69 5.0 10.0 0.00 0.00 0.00 65 1006.4
20210414165545 57 63 6.0 10.0 0.00 0.00 0.00 66 1006.6
20210414164636 57 51 4.0 10.0 0.00 0.00 0.00 66 1006.8
20210414164046 57 83 7.0 10.0 0.00 0.00 0.00 65 1006.8
20210414163552 57 77 5.0 11.0 0.00 0.00 0.00 64 1006.9
20210414163159 57 56 6.0 11.0 0.00 0.00 0.00 65 1006.9
20210414163036 57 103 4.0 11.0 0.00 0.00 0.00 65 1007.0
20210414162604 57 30 6.0 12.0 0.00 0.00 0.00 67 1007.1
20210414161055 57 58 6.0 12.0 0.00 0.00 0.00 67 1006.7
20210414160623 57 86 5.0 9.0 0.00 0.00 0.00 66 1007.1
20210414160156 56 75 4.0 8.0 0.00 0.00 0.00 66 1007.7
20210414155913 56 71 4.0 8.0 0.00 0.00 0.00 66 1007.9
20210414155522 56 36 5.0 9.0 0.00 0.00 0.00 66 1008.2
20210414154842 56 44 4.0 11.0 0.00 0.00 0.00 66 1008.3
20210414154049 56 67 7.0 14.0 0.00 0.00 0.00 65 1008.3
20210414153542 56 57 7.0 14.0 0.00 0.00 0.00 66 1008.3
20210414153252 56 57 8.0 14.0 0.00 0.00 0.00 66 1008.4
20210414152945 56 28 6.0 11.0 0.00 0.00 0.00 66 1008.6
20210414152333 56 28 6.0 11.0 0.00 0.00 0.00 66 1008.7
20210414151046 56 4 6.0 16.0 0.00 0.00 0.00 68 1008.8
20210414150539 56 31 9.0 16.0 0.00 0.00 0.00 66 1008.7
20210414150203 56 73 5.0 14.0 0.00 0.00 0.00 67 1008.5
20210414145909 56 57 6.0 16.0 0.00 0.00 0.00 67 1008.5
20210414145638 56 45 8.0 16.0 0.00 0.00 0.00 66 1008.5